Multibeam Report for RR1203


Ship Name: Roger Revelle
Chief Scientist: None
Scripps Institution of Oceanography
Source Organization: UNOLS R2R
Start Date: 2012-04-09
End Date: 2012-04-21


View ISO Metadata

Visit the full NCEI Bathymetry Viewer


Multibeam Bathymetry

Cruise Details

Project: Transit
Instrument: Kongsberg EM122

Data Quality

Number of Files: 189
Number of Records: 83297
BATHYMETRY DATA Quantity Percentage
Number of Beams 35983008 100%
Number of Good Beams 31159364 86.59%
Number of Zero Beams 0 0%
Number of Flagged Beams 4823644 13.41%

Navigation Totals

Total Time: 54.9672 hours
Total Track Length: 1217.4925 km
Average Speed: 22.149 km/hr (11.9595 knots)

Cruise Bounds

Northern Extent: 6.273144
Southern Extent: -31.31595
Western Extent: 113.16545
Eastern Extent: 126.51686

Limits

Minimum Sonar Depth 4.0317 Maximum Sonar Depth 7.2671
Minimum Altitude 0 Maximum Altitude 9051.1816
Minimum Depth 154.9018 Maximum Depth 9943.3359

File Information

Full Resolution Bathymetry as collected (raw): 186

Files File Size Description
0000_20120409_124004_revelle.all.mb58.gz 0.87MB Kongsberg multibeam vendor format
0001_20120409_151357_revelle.all.mb58.gz 37.55MB Kongsberg multibeam vendor format
0002_20120409_154400_revelle.all.mb58.gz 30.18MB Kongsberg multibeam vendor format
0003_20120409_161402_revelle.all.mb58.gz 11.76MB Kongsberg multibeam vendor format
0004_20120409_164358_revelle.all.mb58.gz 13.61MB Kongsberg multibeam vendor format
0005_20120409_171407_revelle.all.mb58.gz 13.50MB Kongsberg multibeam vendor format
0006_20120409_174407_revelle.all.mb58.gz 13.33MB Kongsberg multibeam vendor format
0007_20120409_181402_revelle.all.mb58.gz 12.98MB Kongsberg multibeam vendor format
0008_20120409_184358_revelle.all.mb58.gz 14.55MB Kongsberg multibeam vendor format
0009_20120409_191408_revelle.all.mb58.gz 2.89MB Kongsberg multibeam vendor format
0010_20120409_192017_revelle.all.mb58.gz 16.60MB Kongsberg multibeam vendor format
0011_20120409_195024_revelle.all.mb58.gz 16.04MB Kongsberg multibeam vendor format
0012_20120409_202017_revelle.all.mb58.gz 15.88MB Kongsberg multibeam vendor format
0013_20120409_205023_revelle.all.mb58.gz 15.10MB Kongsberg multibeam vendor format
0014_20120409_212027_revelle.all.mb58.gz 14.70MB Kongsberg multibeam vendor format
0015_20120409_215023_revelle.all.mb58.gz 15.30MB Kongsberg multibeam vendor format
0016_20120409_222024_revelle.all.mb58.gz 15.11MB Kongsberg multibeam vendor format
0017_20120409_225022_revelle.all.mb58.gz 15.92MB Kongsberg multibeam vendor format
0018_20120409_232021_revelle.all.mb58.gz 18.22MB Kongsberg multibeam vendor format
0019_20120409_235025_revelle.all.mb58.gz 18.17MB Kongsberg multibeam vendor format
0020_20120410_002021_revelle.all.mb58.gz 19.09MB Kongsberg multibeam vendor format
0021_20120410_005028_revelle.all.mb58.gz 18.58MB Kongsberg multibeam vendor format
0022_20120410_012020_revelle.all.mb58.gz 17.63MB Kongsberg multibeam vendor format
0023_20120410_015022_revelle.all.mb58.gz 25.41MB Kongsberg multibeam vendor format
0024_20120410_022022_revelle.all.mb58.gz 24.63MB Kongsberg multibeam vendor format
0025_20120410_025022_revelle.all.mb58.gz 22.47MB Kongsberg multibeam vendor format
0026_20120410_032018_revelle.all.mb58.gz 22.55MB Kongsberg multibeam vendor format
0027_20120410_035027_revelle.all.mb58.gz 13.03MB Kongsberg multibeam vendor format
0028_20120410_042018_revelle.all.mb58.gz 18.23MB Kongsberg multibeam vendor format
0029_20120410_045021_revelle.all.mb58.gz 21.80MB Kongsberg multibeam vendor format
0030_20120410_052019_revelle.all.mb58.gz 22.64MB Kongsberg multibeam vendor format
0031_20120410_055019_revelle.all.mb58.gz 24.07MB Kongsberg multibeam vendor format
0032_20120410_062018_revelle.all.mb58.gz 27.54MB Kongsberg multibeam vendor format
0033_20120410_065018_revelle.all.mb58.gz 20.46MB Kongsberg multibeam vendor format
0034_20120410_071509_revelle.all.mb58.gz 3.24MB Kongsberg multibeam vendor format
0035_20120410_071931_revelle.all.mb58.gz 49.4KB Kongsberg multibeam vendor format
0036_20120410_071942_revelle.all.mb58.gz 1.27MB Kongsberg multibeam vendor format
0037_20120410_075138_revelle.all.mb58.gz 8.72MB Kongsberg multibeam vendor format
0038_20120410_075922_revelle.all.mb58.gz 0.87MB Kongsberg multibeam vendor format
0039_20120410_080107_revelle.all.mb58.gz 0.52MB Kongsberg multibeam vendor format
0040_20120410_080157_revelle.all.mb58.gz 7.35MB Kongsberg multibeam vendor format
0041_20120410_080801_revelle.all.mb58.gz 1.19MB Kongsberg multibeam vendor format
0042_20120410_080925_revelle.all.mb58.gz 2.86MB Kongsberg multibeam vendor format
0043_20120410_081156_revelle.all.mb58.gz 3.70MB Kongsberg multibeam vendor format
0044_20120410_081629_revelle.all.mb58.gz 2.58MB Kongsberg multibeam vendor format
0045_20120410_082056_revelle.all.mb58.gz 34.74MB Kongsberg multibeam vendor format
0046_20120410_085042_revelle.all.mb58.gz 37.74MB Kongsberg multibeam vendor format
0047_20120410_092042_revelle.all.mb58.gz 47.40MB Kongsberg multibeam vendor format
0048_20120410_095042_revelle.all.mb58.gz 61.92MB Kongsberg multibeam vendor format
0049_20120410_102041_revelle.all.mb58.gz 65.88MB Kongsberg multibeam vendor format
0050_20120410_105042_revelle.all.mb58.gz 66.42MB Kongsberg multibeam vendor format
0051_20120410_112041_revelle.all.mb58.gz 18.26MB Kongsberg multibeam vendor format
0052_20120410_115043_revelle.all.mb58.gz 5.86MB Kongsberg multibeam vendor format
0053_20120410_122050_revelle.all.mb58.gz 5.79MB Kongsberg multibeam vendor format
0054_20120410_125044_revelle.all.mb58.gz 5.89MB Kongsberg multibeam vendor format
0055_20120410_132046_revelle.all.mb58.gz 5.78MB Kongsberg multibeam vendor format
0056_20120410_135043_revelle.all.mb58.gz 5.72MB Kongsberg multibeam vendor format
0057_20120410_142050_revelle.all.mb58.gz 5.73MB Kongsberg multibeam vendor format
0058_20120410_145047_revelle.all.mb58.gz 5.68MB Kongsberg multibeam vendor format
0059_20120410_152043_revelle.all.mb58.gz 5.65MB Kongsberg multibeam vendor format
0060_20120410_155048_revelle.all.mb58.gz 5.68MB Kongsberg multibeam vendor format
0061_20120410_162043_revelle.all.mb58.gz 5.76MB Kongsberg multibeam vendor format
0062_20120410_165049_revelle.all.mb58.gz 5.82MB Kongsberg multibeam vendor format
0063_20120410_172044_revelle.all.mb58.gz 5.98MB Kongsberg multibeam vendor format
0064_20120410_175044_revelle.all.mb58.gz 6.02MB Kongsberg multibeam vendor format
0065_20120410_182050_revelle.all.mb58.gz 5.95MB Kongsberg multibeam vendor format
0066_20120410_185049_revelle.all.mb58.gz 4.54MB Kongsberg multibeam vendor format
0067_20120411_040550_revelle.all.mb58.gz 5.74MB Kongsberg multibeam vendor format
0068_20120411_043551_revelle.all.mb58.gz 5.71MB Kongsberg multibeam vendor format
0069_20120411_050548_revelle.all.mb58.gz 5.68MB Kongsberg multibeam vendor format
0070_20120411_053545_revelle.all.mb58.gz 5.53MB Kongsberg multibeam vendor format
0071_20120411_060556_revelle.all.mb58.gz 5.48MB Kongsberg multibeam vendor format
0072_20120411_063553_revelle.all.mb58.gz 5.56MB Kongsberg multibeam vendor format
0073_20120411_070550_revelle.all.mb58.gz 2.75MB Kongsberg multibeam vendor format
0074_20120411_072032_revelle.all.mb58.gz 2.55MB Kongsberg multibeam vendor format
0075_20120411_073526_revelle.all.mb58.gz 134.1KB Kongsberg multibeam vendor format
0076_20120411_073607_revelle.all.mb58.gz 83.4KB Kongsberg multibeam vendor format
0077_20120411_073629_revelle.all.mb58.gz 0.54MB Kongsberg multibeam vendor format
0078_20120411_085802_revelle.all.mb58.gz 42.48MB Kongsberg multibeam vendor format
0079_20120411_092747_revelle.all.mb58.gz 39.60MB Kongsberg multibeam vendor format
0080_20120411_095746_revelle.all.mb58.gz 39.26MB Kongsberg multibeam vendor format
0081_20120411_102746_revelle.all.mb58.gz 36.12MB Kongsberg multibeam vendor format
0082_20120411_105746_revelle.all.mb58.gz 32.07MB Kongsberg multibeam vendor format
0083_20120411_112748_revelle.all.mb58.gz 30.50MB Kongsberg multibeam vendor format
0084_20120411_115747_revelle.all.mb58.gz 27.12MB Kongsberg multibeam vendor format
0085_20120411_122745_revelle.all.mb58.gz 27.99MB Kongsberg multibeam vendor format
0086_20120411_125752_revelle.all.mb58.gz 16.16MB Kongsberg multibeam vendor format
0087_20120411_132750_revelle.all.mb58.gz 14.14MB Kongsberg multibeam vendor format
0088_20120411_135754_revelle.all.mb58.gz 13.71MB Kongsberg multibeam vendor format
0089_20120411_142750_revelle.all.mb58.gz 15.97MB Kongsberg multibeam vendor format
0090_20120411_145759_revelle.all.mb58.gz 18.34MB Kongsberg multibeam vendor format
0091_20120411_152746_revelle.all.mb58.gz 23.17MB Kongsberg multibeam vendor format
0092_20120411_155746_revelle.all.mb58.gz 22.41MB Kongsberg multibeam vendor format
0093_20120411_162749_revelle.all.mb58.gz 20.67MB Kongsberg multibeam vendor format
0094_20120411_165750_revelle.all.mb58.gz 22.29MB Kongsberg multibeam vendor format
0095_20120411_172747_revelle.all.mb58.gz 21.99MB Kongsberg multibeam vendor format
0096_20120411_175749_revelle.all.mb58.gz 22.27MB Kongsberg multibeam vendor format
0097_20120411_182750_revelle.all.mb58.gz 23.47MB Kongsberg multibeam vendor format
0098_20120411_185750_revelle.all.mb58.gz 23.19MB Kongsberg multibeam vendor format
0099_20120411_192750_revelle.all.mb58.gz 23.06MB Kongsberg multibeam vendor format
0100_20120411_195746_revelle.all.mb58.gz 23.14MB Kongsberg multibeam vendor format
0101_20120411_202748_revelle.all.mb58.gz 22.17MB Kongsberg multibeam vendor format
0102_20120411_205747_revelle.all.mb58.gz 21.47MB Kongsberg multibeam vendor format
0103_20120411_212747_revelle.all.mb58.gz 21.68MB Kongsberg multibeam vendor format
0104_20120411_215748_revelle.all.mb58.gz 21.81MB Kongsberg multibeam vendor format
0105_20120411_222746_revelle.all.mb58.gz 21.76MB Kongsberg multibeam vendor format
0106_20120411_225746_revelle.all.mb58.gz 22.00MB Kongsberg multibeam vendor format
0107_20120411_232748_revelle.all.mb58.gz 21.91MB Kongsberg multibeam vendor format
0108_20120411_235748_revelle.all.mb58.gz 21.81MB Kongsberg multibeam vendor format
0109_20120412_002747_revelle.all.mb58.gz 21.77MB Kongsberg multibeam vendor format
0110_20120412_005749_revelle.all.mb58.gz 21.76MB Kongsberg multibeam vendor format
0111_20120412_012750_revelle.all.mb58.gz 21.76MB Kongsberg multibeam vendor format
0112_20120412_015748_revelle.all.mb58.gz 21.61MB Kongsberg multibeam vendor format
0113_20120412_022749_revelle.all.mb58.gz 21.63MB Kongsberg multibeam vendor format
0114_20120412_025746_revelle.all.mb58.gz 21.48MB Kongsberg multibeam vendor format
0115_20120412_032748_revelle.all.mb58.gz 21.66MB Kongsberg multibeam vendor format
0116_20120412_035750_revelle.all.mb58.gz 21.71MB Kongsberg multibeam vendor format
0117_20120412_042748_revelle.all.mb58.gz 21.80MB Kongsberg multibeam vendor format
0118_20120412_045750_revelle.all.mb58.gz 21.80MB Kongsberg multibeam vendor format
0119_20120412_052751_revelle.all.mb58.gz 21.60MB Kongsberg multibeam vendor format
0120_20120412_055748_revelle.all.mb58.gz 21.47MB Kongsberg multibeam vendor format
0121_20120412_062746_revelle.all.mb58.gz 21.06MB Kongsberg multibeam vendor format
0122_20120412_065747_revelle.all.mb58.gz 21.03MB Kongsberg multibeam vendor format
0123_20120412_072751_revelle.all.mb58.gz 20.79MB Kongsberg multibeam vendor format
0124_20120412_075750_revelle.all.mb58.gz 20.76MB Kongsberg multibeam vendor format
0125_20120412_082749_revelle.all.mb58.gz 21.08MB Kongsberg multibeam vendor format
0126_20120412_085750_revelle.all.mb58.gz 21.00MB Kongsberg multibeam vendor format
0127_20120412_092750_revelle.all.mb58.gz 20.79MB Kongsberg multibeam vendor format
0128_20120412_095749_revelle.all.mb58.gz 20.21MB Kongsberg multibeam vendor format
0129_20120412_102747_revelle.all.mb58.gz 19.81MB Kongsberg multibeam vendor format
0130_20120412_105751_revelle.all.mb58.gz 19.58MB Kongsberg multibeam vendor format
0131_20120412_112749_revelle.all.mb58.gz 19.41MB Kongsberg multibeam vendor format
0132_20120412_115746_revelle.all.mb58.gz 18.42MB Kongsberg multibeam vendor format
0133_20120412_122749_revelle.all.mb58.gz 18.16MB Kongsberg multibeam vendor format
0134_20120412_125746_revelle.all.mb58.gz 17.87MB Kongsberg multibeam vendor format
0135_20120412_132748_revelle.all.mb58.gz 17.67MB Kongsberg multibeam vendor format
0136_20120412_135752_revelle.all.mb58.gz 17.17MB Kongsberg multibeam vendor format
0137_20120412_142751_revelle.all.mb58.gz 11.38MB Kongsberg multibeam vendor format
0138_20120412_145802_revelle.all.mb58.gz 10.76MB Kongsberg multibeam vendor format
0139_20120412_152802_revelle.all.mb58.gz 12.91MB Kongsberg multibeam vendor format
0140_20120412_155752_revelle.all.mb58.gz 18.07MB Kongsberg multibeam vendor format
0141_20120412_162748_revelle.all.mb58.gz 17.91MB Kongsberg multibeam vendor format
0142_20120412_165747_revelle.all.mb58.gz 11.02MB Kongsberg multibeam vendor format
0143_20120412_172758_revelle.all.mb58.gz 10.77MB Kongsberg multibeam vendor format
0144_20120412_175747_revelle.all.mb58.gz 11.03MB Kongsberg multibeam vendor format
0145_20120412_182752_revelle.all.mb58.gz 11.42MB Kongsberg multibeam vendor format
0146_20120412_185755_revelle.all.mb58.gz 10.49MB Kongsberg multibeam vendor format
0147_20120412_192841_revelle.all.mb58.gz 6.81MB Kongsberg multibeam vendor format
0148_20120412_195753_revelle.all.mb58.gz 6.96MB Kongsberg multibeam vendor format
0149_20120412_202756_revelle.all.mb58.gz 6.96MB Kongsberg multibeam vendor format
0150_20120412_205759_revelle.all.mb58.gz 6.96MB Kongsberg multibeam vendor format
0151_20120412_212748_revelle.all.mb58.gz 6.91MB Kongsberg multibeam vendor format
0152_20120412_215750_revelle.all.mb58.gz 7.00MB Kongsberg multibeam vendor format
0153_20120412_222753_revelle.all.mb58.gz 7.07MB Kongsberg multibeam vendor format
0154_20120412_225755_revelle.all.mb58.gz 6.92MB Kongsberg multibeam vendor format
0155_20120412_232757_revelle.all.mb58.gz 6.79MB Kongsberg multibeam vendor format
0156_20120412_235746_revelle.all.mb58.gz 6.98MB Kongsberg multibeam vendor format
0157_20120413_002749_revelle.all.mb58.gz 7.02MB Kongsberg multibeam vendor format
0158_20120413_005752_revelle.all.mb58.gz 6.79MB Kongsberg multibeam vendor format
0159_20120413_012755_revelle.all.mb58.gz 6.82MB Kongsberg multibeam vendor format
0160_20120413_015758_revelle.all.mb58.gz 6.85MB Kongsberg multibeam vendor format
0161_20120413_022747_revelle.all.mb58.gz 7.01MB Kongsberg multibeam vendor format
0162_20120413_025751_revelle.all.mb58.gz 7.09MB Kongsberg multibeam vendor format
0163_20120413_032754_revelle.all.mb58.gz 7.13MB Kongsberg multibeam vendor format
0164_20120413_035756_revelle.all.mb58.gz 1.24MB Kongsberg multibeam vendor format
0165_20120413_040310_revelle.all.mb58.gz 0.59MB Kongsberg multibeam vendor format
0166_20120413_040608_revelle.all.mb58.gz 4.2KB Kongsberg multibeam vendor format
0167_20120413_060022_revelle.all.mb58.gz 218.4KB Kongsberg multibeam vendor format
0168_20120413_060107_revelle.all.mb58.gz 331.9KB Kongsberg multibeam vendor format
0169_20120418_140831_revelle.all.mb58.gz 374.3KB Kongsberg multibeam vendor format
0170_20120418_140931_revelle.all.mb58.gz 3.56MB Kongsberg multibeam vendor format
0171_20120418_152812_revelle.all.mb58.gz 423.5KB Kongsberg multibeam vendor format
0172_20120418_152922_revelle.all.mb58.gz 0.61MB Kongsberg multibeam vendor format
0173_20120418_153004_revelle.all.mb58.gz 0.66MB Kongsberg multibeam vendor format
0174_20120418_153053_revelle.all.mb58.gz 1.23MB Kongsberg multibeam vendor format
0174_20120418_154208_revelle.all.mb58.gz 1.71MB Kongsberg multibeam vendor format
0175_20120418_154421_revelle.all.mb58.gz 3.50MB Kongsberg multibeam vendor format
0176_20120418_154822_revelle.all.mb58.gz 0.59MB Kongsberg multibeam vendor format
0177_20120418_154917_revelle.all.mb58.gz 12.27MB Kongsberg multibeam vendor format
0178_20120418_161119_revelle.all.mb58.gz 224.0KB Kongsberg multibeam vendor format
0179_20120418_161208_revelle.all.mb58.gz 2.83MB Kongsberg multibeam vendor format
0180_20120418_161659_revelle.all.mb58.gz 261.0KB Kongsberg multibeam vendor format
0181_20120418_161724_revelle.all.mb58.gz 13.51MB Kongsberg multibeam vendor format
0182_20120418_164728_revelle.all.mb58.gz 2.68MB Kongsberg multibeam vendor format
0183_20120418_165447_revelle.all.mb58.gz 286.3KB Kongsberg multibeam vendor format
0184_20120418_165527_revelle.all.mb58.gz 190.9KB Kongsberg multibeam vendor format

Metadata Files: 2

Files File Size Description
RR1203_Multibeam.xml NGDC created ISO metadata
xbt_bag_info.tar.gz 1.9KB Additional cruise information

Ancillary Files: 1

Files File Size Description
xbt.tar.gz 293.7KB Expendable Bathythermograph (XBT) data